Weather History for Ruidoso, NM

Change the Weather History Date:

Sunday, June 9, 2013

  Actual Average Record
Temperature  
Mean Temperature 68 °F -  
Max Temperature 82 °F 78 °F 87 °F (2002)
Min Temperature 55 °F 53 °F 32 °F (2005)
Cooling Degree Days 4    
Growing Degree Days 18 (Base 50)    
Moisture  
Dew Point 46 °F    
Average Humidity 44    
Maximum Humidity 72    
Minimum Humidity 25    
Precipitation  
Precipitation 0.00 in - - ()
Sea Level Pressure  
Sea Level Pressure 30.21 in    
Wind  
Wind Speed 10 mph (SE)    
Max Wind Speed 16 mph    
Max Gust Speed 24 mph    
Visibility 10 miles    
Events      
Averages and records for this station are not official NWS values.
T = Trace of Precipitation, MM = Missing Value Source: NWS Daily Summary

Daily Weather History Graph

Daily Weather History Graph

Search for Another Location

Airport:

Trip Planner

Search our weather history database for the weather conditions in past years. The results will help you decide how hot, cold, wet, or windy it might be!

Date:

Astronomy

Jun. 09, 2013 Rise Set
Actual Time 5:51 AM MDT 8:11 PM MDT
Civil Twilight 5:23 AM MDT 8:40 PM MDT
Nautical Twilight 4:47 AM MDT 9:15 PM MDT
Astronomical Twilight 4:09 AM MDT 9:53 PM MDT
Moon 6:47 AM MDT (6/9) 9:03 PM MDT (6/9)
Length of Visible Light 15h 17m
Length of Day
14h 19m
New Moon, 1% of the Moon is Illuminated
Jun 9
New Moon
Jun 16
First Quarter
Jun 23
Full
Jun 29
Last Quarter
Jul 8
New

Hourly Weather History & Observations

Time (MDT) Temp. Dew Point Humidity Pressure Visibility Wind Dir Wind Speed Gust Speed Precip Events Conditions
12:15 AM 69.8 °F 32.0 °F 25% 30.11 in 10.0 mi NNW 8.1 mph - N/A   Clear
12:35 AM 68.0 °F 32.0 °F 26% 30.10 in 10.0 mi NNW 9.2 mph - N/A   Clear
12:55 AM 68.0 °F 35.6 °F 30% 30.10 in 10.0 mi North 8.1 mph - N/A   Clear
1:15 AM 66.2 °F 37.4 °F 35% 30.11 in 10.0 mi NNW 6.9 mph - N/A   Clear
1:35 AM 66.2 °F 39.2 °F 37% 30.11 in 10.0 mi North 15.0 mph - N/A   Clear
1:55 AM 66.2 °F 41.0 °F 40% 30.11 in 10.0 mi North 15.0 mph 18.4 mph N/A   Clear
2:15 AM 66.2 °F 41.0 °F 40% 30.12 in 10.0 mi North 9.2 mph 19.6 mph N/A   Clear
2:35 AM 64.4 °F 44.6 °F 49% 30.12 in 10.0 mi NNW 13.8 mph 19.6 mph N/A   Clear
2:55 AM 62.6 °F 46.4 °F 55% 30.12 in 10.0 mi North 11.5 mph 19.6 mph N/A   Clear
3:15 AM 60.8 °F 46.4 °F 59% 30.13 in 10.0 mi NW 11.5 mph - N/A   Clear
3:35 AM 59.0 °F 46.4 °F 63% 30.13 in 10.0 mi WNW 13.8 mph - N/A   Clear
3:55 AM 57.2 °F 46.4 °F 67% 30.13 in 10.0 mi NW 8.1 mph - N/A   Clear
4:15 AM 57.2 °F 46.4 °F 67% 30.14 in 10.0 mi West 9.2 mph - N/A   Clear
4:35 AM 57.2 °F 46.4 °F 67% 30.15 in 10.0 mi WNW 9.2 mph - N/A   Clear
4:55 AM 57.2 °F 46.4 °F 67% 30.15 in 10.0 mi NW 8.1 mph - N/A   Clear
5:15 AM 57.2 °F 46.4 °F 67% 30.16 in 10.0 mi WNW 10.4 mph - N/A   Clear
5:35 AM 57.2 °F 48.2 °F 72% 30.16 in 10.0 mi WNW 12.7 mph 17.3 mph N/A   Clear
5:55 AM 57.2 °F 48.2 °F 72% 30.16 in 10.0 mi NW 10.4 mph - N/A   Clear
6:15 AM 55.4 °F 46.4 °F 72% 30.17 in 10.0 mi WNW 9.2 mph - N/A   Clear
6:35 AM 57.2 °F 46.4 °F 67% 30.18 in 10.0 mi WNW 6.9 mph - N/A   Clear
6:55 AM 57.2 °F 46.4 °F 67% 30.19 in 10.0 mi West 4.6 mph - N/A   Clear
7:15 AM 59.0 °F 46.4 °F 63% 30.19 in 10.0 mi West 3.5 mph - N/A   Clear
7:35 AM 60.8 °F 46.4 °F 59% 30.19 in 10.0 mi WNW 5.8 mph - N/A   Clear
7:55 AM 62.6 °F 46.4 °F 55% 30.21 in 10.0 mi SW 3.5 mph - N/A   Clear
8:15 AM 64.4 °F 46.4 °F 52% 30.22 in 10.0 mi SSW 6.9 mph - N/A   Clear
8:35 AM 64.4 °F 48.2 °F 56% 30.22 in 10.0 mi SE 5.8 mph - N/A   Clear
8:55 AM 66.2 °F 48.2 °F 52% 30.23 in 10.0 mi SE 5.8 mph 18.4 mph N/A   Clear
9:15 AM 68.0 °F 48.2 °F 49% 30.23 in 10.0 mi SSE 6.9 mph - N/A   Clear
9:35 AM 68.0 °F 50.0 °F 52% 30.24 in 10.0 mi SE 8.1 mph 16.1 mph N/A   Clear
9:55 AM 68.0 °F 50.0 °F 52% 30.24 in 10.0 mi South 8.1 mph 16.1 mph N/A   Clear
10:15 AM 68.0 °F 50.0 °F 52% 30.24 in 10.0 mi ESE 8.1 mph - N/A   Clear
10:35 AM 69.8 °F 50.0 °F 49% 30.25 in 10.0 mi SSE 12.7 mph 18.4 mph N/A   Clear
10:55 AM 71.6 °F 50.0 °F 46% 30.25 in 10.0 mi SE 11.5 mph 19.6 mph N/A   Clear
11:15 AM 73.4 °F 50.0 °F 44% 30.25 in 10.0 mi SE 12.7 mph 18.4 mph N/A   Clear
11:35 AM 73.4 °F 50.0 °F 44% 30.26 in 10.0 mi ESE 11.5 mph 18.4 mph N/A   Clear
11:55 AM 73.4 °F 51.8 °F 47% 30.26 in 10.0 mi ESE 12.7 mph 18.4 mph N/A   Clear
12:15 PM 73.4 °F 50.0 °F 44% 30.26 in 10.0 mi ESE 8.1 mph 17.3 mph N/A   Clear
12:35 PM 75.2 °F 50.0 °F 41% 30.25 in 10.0 mi SE 10.4 mph - N/A   Clear
12:55 PM 77.0 °F 50.0 °F 39% 30.25 in 10.0 mi SE 9.2 mph 17.3 mph N/A   Clear
1:15 PM 77.0 °F 50.0 °F 39% 30.24 in 10.0 mi SE 12.7 mph - N/A   Partly Cloudy
1:35 PM 77.0 °F 50.0 °F 39% 30.24 in 10.0 mi SE 10.4 mph 19.6 mph N/A   Clear
1:55 PM 77.0 °F 50.0 °F 39% 30.24 in 10.0 mi SE 15.0 mph - N/A   Clear
2:15 PM 77.0 °F 50.0 °F 39% 30.23 in 10.0 mi SE 12.7 mph 21.9 mph N/A   Clear
2:35 PM 78.8 °F 50.0 °F 36% 30.22 in 10.0 mi SE 11.5 mph 19.6 mph N/A   Clear
2:55 PM 80.6 °F 48.2 °F 32% 30.22 in 10.0 mi SE 12.7 mph 16.1 mph N/A   Clear
3:15 PM 80.6 °F 50.0 °F 34% 30.23 in 10.0 mi ESE 12.7 mph 19.6 mph N/A   Clear
3:35 PM 80.6 °F 50.0 °F 34% 30.23 in 10.0 mi SE 16.1 mph 20.7 mph N/A   Partly Cloudy
3:55 PM 80.6 °F 50.0 °F 34% 30.22 in 10.0 mi ESE 11.5 mph 24.2 mph N/A   Partly Cloudy
4:15 PM 80.6 °F 48.2 °F 32% 30.22 in 10.0 mi ESE 15.0 mph 21.9 mph N/A   Partly Cloudy
4:35 PM 82.4 °F 46.4 °F 28% 30.21 in 10.0 mi South 13.8 mph - N/A   Partly Cloudy
4:55 PM 80.6 °F 46.4 °F 30% 30.21 in 10.0 mi South 13.8 mph 19.6 mph N/A   Partly Cloudy
5:15 PM 82.4 °F 46.4 °F 28% 30.21 in 10.0 mi SSE 9.2 mph - N/A   Clear
5:35 PM 80.6 °F 46.4 °F 30% 30.21 in 10.0 mi SSE 12.7 mph - N/A   Clear
5:55 PM 80.6 °F 46.4 °F 30% 30.21 in 10.0 mi East 9.2 mph - N/A   Clear
6:15 PM 80.6 °F 46.4 °F 30% 30.21 in 10.0 mi East 10.4 mph - N/A   Clear
6:35 PM 80.6 °F 46.4 °F 30% 30.21 in 10.0 mi ESE 11.5 mph - N/A   Clear
6:55 PM 80.6 °F 46.4 °F 30% 30.21 in 10.0 mi SE 10.4 mph - N/A   Clear
7:15 PM 78.8 °F 46.4 °F 32% 30.22 in 10.0 mi SE 12.7 mph - N/A   Clear
7:35 PM 77.0 °F 46.4 °F 34% 30.22 in 10.0 mi SSE 11.5 mph 16.1 mph N/A   Clear
7:55 PM 77.0 °F 44.6 °F 32% 30.22 in 10.0 mi SE 9.2 mph - N/A   Clear
8:15 PM 75.2 °F 44.6 °F 34% 30.23 in 10.0 mi SSE 10.4 mph - N/A   Clear
8:35 PM 73.4 °F 46.4 °F 38% 30.24 in 10.0 mi SE 10.4 mph - N/A   Clear
8:55 PM 73.4 °F 46.4 °F 38% 30.24 in 10.0 mi SE 9.2 mph - N/A   Clear
9:15 PM 73.4 °F 44.6 °F 36% 30.25 in 10.0 mi SE 10.4 mph - N/A   Clear
9:35 PM 71.6 °F 44.6 °F 38% 30.26 in 10.0 mi SE 10.4 mph - N/A   Clear
9:55 PM 69.8 °F 44.6 °F 40% 30.27 in 10.0 mi SE 9.2 mph - N/A   Clear
10:15 PM 69.8 °F 42.8 °F 38% 30.27 in 10.0 mi SE 9.2 mph - N/A   Clear
10:35 PM 71.6 °F 42.8 °F 35% 30.27 in 10.0 mi SE 10.4 mph - N/A   Clear
10:55 PM 69.8 °F 42.8 °F 38% 30.27 in 10.0 mi SE 9.2 mph - N/A   Clear
11:15 PM 68.0 °F 42.8 °F 40% 30.27 in 10.0 mi SSE 8.1 mph - N/A   Clear
11:35 PM 66.2 °F 42.8 °F 43% 30.28 in 10.0 mi SSE 8.1 mph - N/A   Clear
11:55 PM 66.2 °F 42.8 °F 43% 30.28 in 10.0 mi South 9.2 mph - N/A   Clear